Temp
97 91 86 88 91 91 88 85 83 87 91 88 88 87 92 94 94 94 92 92 92 93 96 94 92 93 92 90 88 87 86 86 85 87 87 85 80 79 84 87 87 84 83 82
91 85 92 93 92 89 88 84 81 88 90 87 87 86 90 90 90 91 92 91 92 93 93 92 91 92 90 89 87 87 86 86 85 88 87 86 84 86 87 86 84 82 80 80
87 89 93 90 88 86 85 82 82 81 87 90 85 83 85 90 92 91 92 93 93 93 93 93 92 91 92 89 87 86 86 85 84 85 87 84 84 84 84 82 83 84 80 79
90 94 89 88 86 87 79 88 86 84 81 76 85 71 81 85 86 89 90 92 94 94 94 94 93 92 92 92 92 88 86 85 85 84 83 80 79 79 83 83 84 81 80 79
86 87 87 86 86 88 83 89 85 84 81 79 78 77 75 84 83 85 89 92 93 95 95 94 94 94 95 93 93 90 86 84 83 82 79 81 80 83 83 82 79 76 79 79
90 96 92 90 89 89 90 87 86 85 83 69 75 75 74 77 82 86 89 91 93 95 95 95 95 95 94 96 95 91 86 83 83 81 81 78 77 76 77 76 75 79 78 78
85 88 92 92 87 89 88 80 70 66 68 66 79 75 74 83 87 88 89 92 95 96 95 94 94 92 92 93 91 92 87 84 84 82 81 80 77 75 75 75 77 72 75 75
77 73 86 90 86 83 83 80 70 57 62 69 79 69 74 86 89 90 92 92 94 95 96 95 94 93 94 92 89 88 87 85 85 83 81 80 78 79 78 76 74 73 73 73
78 76 89 89 90 88 79 66 82 71 74 69 74 78 84 87 88 89 91 92 92 93 92 93 92 92 92 90 87 87 88 86 85 83 80 78 77 75 74 73 72 74 71 72
83 73 86 87 90 88 84 87 73 75 59 57 68 71 66 78 81 85 86 88 90 92 93 92 93 91 90 90 89 88 88 87 85 83 82 78 72 75 70 73 70 69 69 67
86 79 73 85 81 74 78 72 77 77 73 62 61 69 83 80 83 83 85 88 89 91 92 91 91 91 90 91 92 90 88 86 86 84 78 68 74 71 68 71 70 69 67 66
86 79 72 68 86 89 86 80 78 68 65 71 69 66 86 85 85 85 84 88 89 90 91 92 92 91 90 89 89 88 85 85 85 78 74 69 72 73 66 68 69 65 63 63
85 77 69 73 79 75 71 80 79 76 73 66 64 68 86 86 84 86 85 87 89 88 89 90 91 89 87 84 86 85 85 84 77 73 75 73 72 68 68 68 64 62 61 61
76 78 74 68 67 77 72 77 79 75 67 69 70 72 79 81 81 83 84 86 88 88 88 88 87 87 87 86 84 83 83 78 78 77 76 73 71 69 68 63 60 59 59 58
81 73 78 80 80 80 79 78 78 75 75 67 71 72 77 80 81 83 85 86 86 85 85 85 84 84 84 82 82 81 80 78 76 76 75 71 70 70 64 61 59 55 55 57
82 74 77 75 79 78 75 78 78 77 76 75 75 73 78 84 86 83 83 84 83 83 83 83 83 82 81 80 80 79 77 74 74 73 72 71 70 65 61 60 61 60 57 56
78 77 72 68 75 75 68 75 76 77 79 75 69 76 82 80 80 80 81 82 80 80 80 80 80 80 79 78 78 76 75 74 72 72 71 70 65 62 62 61 61 56 57 56
77 75 75 69 72 58 74 82 80 75 77 79 79 79 80 81 82 83 82 77 78 78 79 79 80 79 78 79 77 76 75 73 72 69 70 67 63 64 62 61 59 57 53 53
81 76 70 66 66 72 76 75 73 72 71 80 78 79 81 83 82 72 71 80 78 78 79 80 80 80 77 76 76 75 74 72 70 68 66 63 66 62 60 59 58 58 58 58
80 79 72 70 62 58 69 78 82 81 66 78 80 78 78 80 61 62 79 80 79 79 80 78 79 79 75 74 74 73 71 70 67 67 63 66 65 61 59 59 59 60 59 58
69 71 68 66 65 71 77 80 82 63 63 78 79 78 77 74 75 77 80 79 80 80 79 79 79 77 73 73 73 69 69 67 69 66 65 65 63 59 61 60 61 59 59 60
70 67 66 68 64 60 80 79 69 72 78 79 79 78 77 77 77 78 79 79 79 78 78 79 77 76 73 73 73 68 67 69 68 63 65 65 61 60 61 61 60 61 59 60
68 74 69 70 70 78 81 77 80 79 78 80 79 79 79 77 78 78 78 78 77 78 77 78 76 75 73 72 70 68 67 69 65 63 63 62 61 62 61 61 59 57 58 61
79 80 73 72 77 79 80 83 82 81 80 81 80 79 80 77 77 78 78 77 77 77 76 76 75 73 70 71 70 69 69 68 63 60 61 62 61 60 62 65 64 62 57 54
80 78 73 73 78 80 82 83 82 81 81 81 81 80 78 78 78 78 77 76 76 76 77 75 73 71 70 71 70 70 70 65 61 60 63 61 60 61 61 62 60 61 58 54
82 76 73 72 79 77 79 83 82 80 79 81 79 78 79 79 77 78 76 76 75 75 76 74 73 71 71 71 70 69 69 64 62 59 63 64 58 60 63 60 60 43 43 41
MSLP
1005.94 1004.91 1003.75 1004.19 1004.25 1004.42 1004.47 1004.19 1004.11 1004.33 1005.14 1005.50 1004.67 1004.88 1004.73 1005.27 1006.05 1005.80 1006.73 1007.33 1008.09 1008.77 1009.73 1011.33 1012.30 1012.62 1013.29 1013.91 1014.53 1014.94 1015.23 1015.62 1016.05 1015.74 1015.53 1015.21 1015.07 1015.86 1015.70 1015.58 1016.11 1016.89 1017.07 1017.25
1005.19 1004.60 1004.21 1004.79 1004.95 1005.01 1004.83 1004.49 1005.17 1004.91 1005.35 1005.82 1004.88 1004.61 1004.70 1005.92 1006.39 1006.81 1006.91 1007.37 1008.08 1008.89 1009.76 1011.17 1011.97 1012.47 1013.13 1013.63 1014.28 1014.77 1015.15 1015.47 1015.85 1015.53 1015.54 1015.77 1016.08 1015.92 1015.75 1015.93 1016.41 1016.74 1017.05 1017.15
1004.45 1004.67 1005.06 1005.24 1005.28 1005.13 1005.10 1005.38 1005.70 1005.77 1005.52 1004.97 1005.25 1004.45 1005.01 1005.90 1006.47 1007.27 1007.56 1007.66 1008.13 1008.49 1009.05 1010.07 1011.03 1011.93 1012.57 1013.29 1014.01 1014.59 1015.05 1015.33 1015.69 1015.80 1015.67 1015.88 1015.97 1015.68 1015.56 1015.61 1015.87 1015.89 1016.63 1016.74
1004.64 1005.12 1005.45 1005.42 1005.09 1005.87 1005.33 1006.33 1006.24 1005.99 1005.70 1004.56 1005.38 1004.36 1005.05 1005.92 1006.33 1006.88 1007.57 1007.77 1007.95 1008.55 1009.31 1009.86 1010.79 1011.30 1011.85 1012.57 1013.10 1014.19 1014.78 1015.28 1015.53 1015.79 1015.77 1015.98 1016.13 1015.73 1015.55 1015.67 1015.59 1016.14 1016.26 1016.20
1004.81 1005.30 1005.58 1005.26 1005.85 1006.51 1006.26 1006.83 1006.54 1006.20 1005.68 1005.38 1005.54 1004.83 1006.05 1006.15 1005.84 1006.69 1007.13 1007.61 1007.97 1008.28 1008.46 1009.09 1010.09 1011.03 1011.57 1012.32 1012.75 1013.73 1014.61 1015.11 1015.52 1015.90 1016.26 1016.05 1015.73 1015.49 1015.64 1015.64 1015.87 1016.09 1015.51 1015.60
1005.30 1005.75 1005.71 1005.79 1006.64 1006.97 1006.87 1006.28 1005.80 1006.02 1005.11 1004.99 1006.04 1006.09 1006.09 1006.52 1006.58 1006.62 1007.03 1007.43 1007.63 1007.84 1008.39 1008.92 1009.73 1010.87 1011.24 1011.85 1012.51 1013.29 1014.43 1014.98 1015.41 1015.80 1015.88 1016.14 1016.12 1016.07 1015.94 1015.99 1016.05 1015.43 1015.68 1015.55
1005.99 1005.95 1006.45 1006.84 1006.32 1006.75 1006.65 1006.48 1005.14 1005.83 1005.29 1005.17 1006.07 1006.07 1006.58 1007.09 1007.27 1007.49 1007.47 1007.32 1007.26 1007.35 1008.10 1008.61 1008.73 1010.16 1011.13 1011.64 1012.50 1013.08 1014.00 1014.49 1014.95 1015.29 1015.48 1015.67 1016.09 1016.32 1016.07 1015.91 1015.67 1016.13 1015.69 1015.67
1005.35 1005.68 1006.49 1007.11 1006.97 1006.88 1007.07 1007.32 1007.33 1007.11 1006.33 1006.12 1006.17 1006.14 1006.65 1007.42 1007.73 1007.91 1007.96 1007.93 1007.87 1007.71 1007.91 1008.54 1009.25 1010.22 1010.90 1011.63 1012.63 1013.29 1013.55 1014.04 1014.38 1014.85 1015.15 1015.68 1015.89 1015.80 1015.77 1015.87 1016.46 1016.27 1015.97 1015.92
1005.57 1005.87 1006.91 1007.35 1007.63 1007.91 1007.90 1009.16 1008.67 1008.49 1007.64 1006.99 1006.60 1006.23 1006.25 1007.44 1007.10 1007.35 1007.45 1007.37 1007.38 1007.47 1008.21 1008.90 1009.70 1010.58 1011.46 1012.06 1012.75 1013.33 1013.36 1013.71 1014.10 1014.63 1015.33 1015.74 1016.09 1016.41 1016.40 1016.39 1016.43 1016.06 1016.27 1016.04
1006.73 1006.71 1006.99 1007.82 1008.17 1008.59 1008.53 1008.79 1008.42 1008.63 1008.17 1008.09 1007.29 1006.75 1008.68 1007.81 1007.98 1008.23 1008.26 1008.00 1007.91 1008.23 1008.48 1008.91 1009.72 1010.44 1011.82 1012.33 1012.65 1013.10 1013.47 1013.50 1013.84 1014.48 1014.84 1015.30 1015.94 1015.83 1016.45 1016.48 1016.24 1016.26 1016.15 1016.33
1007.77 1007.99 1008.81 1008.13 1007.91 1008.71 1008.84 1009.86 1009.22 1009.33 1009.46 1009.14 1008.05 1007.47 1007.92 1008.46 1008.59 1008.81 1009.09 1008.90 1008.74 1008.54 1008.90 1009.47 1010.25 1011.01 1012.01 1012.39 1012.40 1012.85 1013.19 1013.51 1013.65 1014.13 1015.13 1016.36 1016.23 1016.29 1016.57 1016.40 1016.28 1016.17 1016.35 1016.30
1008.59 1008.61 1008.34 1010.40 1008.69 1008.75 1008.75 1008.89 1009.57 1010.00 1010.10 1009.93 1009.37 1008.71 1008.97 1009.21 1009.31 1009.53 1009.87 1009.44 1009.92 1010.27 1010.26 1010.31 1010.66 1011.29 1011.86 1012.21 1012.51 1012.93 1013.63 1013.79 1013.99 1015.05 1015.86 1016.40 1016.54 1016.28 1016.48 1016.47 1016.39 1016.63 1016.70 1016.53
1009.57 1009.27 1008.75 1008.21 1009.10 1011.26 1010.85 1009.19 1010.11 1010.58 1011.02 1010.31 1009.53 1008.79 1008.48 1009.07 1009.67 1009.97 1010.15 1010.37 1010.27 1010.55 1010.58 1011.04 1011.25 1011.62 1012.13 1012.70 1013.10 1013.58 1013.85 1014.00 1015.13 1015.59 1016.01 1016.29 1016.22 1016.69 1016.59 1016.49 1016.94 1017.08 1016.95 1016.71
1011.01 1009.89 1009.33 1008.60 1009.49 1009.77 1010.02 1009.25 1009.71 1010.59 1010.67 1010.20 1009.92 1009.71 1009.43 1009.51 1010.15 1010.53 1011.00 1011.08 1010.82 1010.83 1011.35 1011.80 1012.36 1012.48 1012.78 1013.07 1013.53 1013.91 1014.02 1014.84 1015.24 1015.51 1015.69 1015.96 1016.47 1016.73 1016.57 1017.14 1017.35 1017.32 1017.15 1016.99
1010.85 1010.07 1009.39 1009.03 1009.43 1009.55 1009.34 1009.35 1009.37 1009.89 1010.29 1010.63 1010.57 1010.29 1010.01 1010.26 1010.72 1010.84 1011.35 1011.58 1011.46 1011.75 1012.37 1012.87 1013.18 1013.56 1013.77 1014.06 1014.40 1014.58 1014.81 1015.27 1015.73 1015.78 1015.96 1016.34 1016.71 1016.74 1017.37 1017.57 1017.61 1017.59 1017.35 1016.99
1010.84 1010.17 1010.05 1009.43 1009.53 1009.90 1009.66 1009.57 1009.57 1009.87 1010.30 1010.63 1010.67 1010.65 1012.03 1011.24 1010.80 1011.45 1012.03 1012.28 1012.60 1013.12 1013.43 1013.82 1014.08 1014.33 1014.51 1014.85 1014.98 1015.11 1015.45 1016.10 1016.41 1016.34 1016.42 1016.71 1016.87 1017.51 1017.85 1017.77 1017.44 1017.18 1017.12 1016.79
1010.55 1010.06 1010.33 1009.72 1009.69 1010.07 1009.77 1009.44 1009.77 1010.32 1010.71 1011.06 1010.95 1010.95 1011.21 1011.39 1011.95 1012.59 1012.87 1013.20 1013.86 1014.35 1014.67 1014.74 1014.78 1014.95 1015.04 1015.50 1015.51 1015.78 1016.23 1016.56 1016.79 1016.85 1016.88 1016.95 1017.71 1017.93 1017.79 1017.64 1017.55 1017.72 1017.26 1016.93
1010.61 1010.68 1010.42 1010.17 1010.08 1009.87 1009.59 1010.12 1010.46 1010.93 1011.50 1011.38 1011.29 1011.36 1011.83 1012.16 1012.99 1013.63 1014.57 1015.08 1015.24 1015.50 1015.59 1015.42 1015.50 1015.51 1015.59 1015.88 1016.10 1016.30 1016.59 1016.81 1017.00 1017.33 1017.30 1017.86 1018.23 1017.75 1017.99 1017.95 1017.86 1017.73 1017.72 1017.33
1011.11 1010.91 1010.61 1010.51 1010.20 1009.83 1009.54 1010.84 1011.44 1011.39 1011.76 1011.68 1011.63 1011.95 1012.38 1012.60 1013.23 1015.65 1016.49 1015.90 1016.17 1016.29 1016.13 1016.01 1015.96 1015.88 1016.15 1016.44 1016.69 1016.80 1016.86 1017.08 1017.46 1017.73 1018.03 1018.47 1017.95 1018.31 1018.41 1018.11 1017.91 1017.88 1017.60 1017.25
1011.23 1011.48 1011.44 1010.92 1010.65 1010.21 1011.15 1011.28 1011.86 1012.04 1012.17 1012.71 1012.68 1012.76 1013.21 1013.67 1014.63 1016.27 1016.07 1016.29 1016.55 1016.57 1016.41 1016.47 1016.31 1016.33 1016.70 1017.03 1017.16 1017.13 1017.28 1017.67 1017.99 1018.14 1018.71 1018.32 1018.47 1018.81 1018.51 1018.37 1018.07 1018.03 1017.65 1017.26
1011.07 1011.05 1010.78 1010.54 1010.77 1010.70 1011.66 1011.95 1011.98 1012.43 1013.84 1013.64 1013.65 1013.86 1014.04 1014.40 1015.57 1016.01 1016.23 1016.55 1016.66 1016.60 1016.58 1016.71 1016.57 1016.51 1017.26 1017.50 1017.50 1017.55 1017.95 1018.17 1018.30 1018.96 1018.82 1018.65 1019.10 1019.08 1018.64 1018.54 1018.23 1018.17 1017.81 1017.41
1010.51 1010.79 1010.75 1011.26 1011.02 1011.54 1012.43 1012.35 1013.03 1014.08 1014.14 1014.23 1014.30 1014.67 1014.99 1015.51 1015.93 1016.22 1016.39 1016.56 1016.64 1016.67 1016.78 1016.82 1016.73 1016.70 1017.59 1017.92 1017.75 1018.03 1018.45 1018.58 1018.87 1019.47 1018.95 1018.97 1019.53 1019.26 1018.94 1018.65 1018.51 1018.23 1018.11 1017.70
1011.20 1011.32 1011.78 1012.05 1011.83 1012.66 1012.96 1013.48 1013.81 1014.31 1014.34 1014.35 1014.67 1015.25 1015.48 1015.83 1016.00 1016.29 1016.40 1016.54 1016.89 1016.95 1017.11 1017.16 1017.10 1017.03 1017.90 1018.27 1018.50 1018.52 1018.88 1018.79 1019.52 1019.56 1019.30 1019.29 1019.62 1019.33 1019.24 1018.73 1018.75 1018.57 1018.45 1017.85
1010.69 1011.69 1012.16 1012.49 1012.39 1012.42 1012.91 1013.39 1013.84 1014.24 1014.48 1014.87 1015.22 1015.57 1015.80 1016.06 1016.49 1016.50 1016.58 1016.83 1017.16 1017.29 1017.28 1017.46 1017.36 1017.45 1018.00 1018.46 1018.72 1018.96 1019.09 1019.40 1019.95 1019.89 1019.55 1019.49 1019.58 1019.50 1019.19 1018.56 1018.56 1018.49 1018.87 1018.95
1010.80 1012.01 1012.02 1012.44 1012.43 1012.41 1012.65 1012.97 1013.60 1014.21 1014.75 1015.05 1015.51 1015.83 1016.19 1016.48 1016.60 1016.76 1016.94 1017.24 1017.47 1017.59 1017.48 1017.79 1017.75 1018.03 1018.32 1018.61 1018.94 1019.15 1019.27 1019.89 1020.12 1020.02 1019.45 1019.53 1019.65 1019.53 1019.45 1019.47 1019.59 1019.19 1019.88 1019.91
1010.93 1011.23 1011.89 1011.82 1012.26 1012.83 1012.83 1013.18 1013.93 1014.35 1014.77 1015.12 1015.76 1016.22 1016.68 1016.87 1017.02 1017.27 1017.49 1017.75 1017.84 1017.88 1017.72 1017.98 1018.00 1018.28 1018.59 1018.76 1019.09 1019.42 1019.59 1020.23 1020.28 1019.96 1019.42 1019.59 1019.72 1019.68 1019.36 1019.64 1019.79 1020.21 1020.29 1020.27
Wind_Speed
14 14 14 11 11 12 10 8 8 6 6 10 17 8 14 8 8 4 4 5 7 7 12 11 8 7 5 4 4 4 5 4 5 5 6 5 3 3 2 6 2 5 7 9
8 15 3 5 6 7 9 11 12 11 4 9 16 9 5 3 4 5 2 6 9 9 8 10 10 7 5 4 4 4 5 5 6 6 5 4 6 7 7 5 3 6 5 8
17 10 6 3 6 11 7 9 11 14 14 15 9 19 8 10 8 5 2 3 4 7 9 11 11 7 7 6 5 4 4 5 5 5 4 5 6 8 7 1 6 5 8 10
10 10 3 7 6 7 5 9 10 12 13 9 3 8 11 4 9 7 7 10 11 8 5 4 1 3 6 4 6 4 4 4 6 3 4 3 6 7 6 7 6 6 10 9
2 5 8 12 14 6 11 11 9 11 13 9 2 10 5 4 7 8 4 2 0 1 4 3 8 6 1 4 5 6 5 4 3 3 4 5 6 6 7 7 8 9 9 8
5 6 4 13 3 4 8 15 13 10 12 6 6 7 7 7 13 4 3 4 4 6 4 5 7 2 5 3 2 6 6 5 4 5 5 5 5 5 6 7 8 8 9 9
6 11 6 4 12 8 10 12 6 6 3 3 7 7 14 8 7 6 10 10 8 8 2 3 6 6 4 1 1 1 4 5 4 5 5 5 4 6 8 8 8 11 9 9
10 11 11 4 7 12 10 9 8 10 9 11 9 3 8 5 3 4 7 8 8 13 6 2 4 5 6 6 1 3 4 4 4 6 4 2 3 5 6 8 8 9 9 10
4 5 8 3 2 7 7 3 6 9 11 10 4 3 7 4 2 1 9 8 10 9 3 5 1 3 6 4 1 5 5 5 5 5 3 4 5 8 9 8 8 9 11 9
4 4 5 9 6 7 16 8 2 6 6 12 14 7 2 9 14 16 15 15 13 10 9 2 3 5 4 5 3 4 6 8 6 5 5 3 3 5 5 9 10 11 11 9
6 5 6 8 8 12 10 5 6 5 2 9 10 12 13 10 12 12 14 14 13 7 8 5 4 5 2 7 8 9 7 8 9 6 5 3 5 5 5 10 11 11 10 11
2 5 5 2 10 10 7 8 6 6 13 10 11 3 13 12 12 10 11 9 12 10 8 8 7 6 6 6 9 12 11 9 10 10 5 3 7 9 6 11 12 10 10 12
1 6 10 6 9 14 7 5 4 1 8 13 11 7 13 9 10 9 9 9 9 3 11 11 12 11 10 8 10 9 11 12 10 5 6 7 9 9 11 11 9 8 9 11
1 6 10 12 8 10 9 3 3 4 9 12 12 17 15 10 10 10 10 9 10 9 11 13 12 15 15 14 15 15 14 9 8 8 8 10 10 11 11 9 7 9 10 10
4 8 6 6 8 8 8 12 7 10 12 10 11 14 13 9 8 6 8 9 11 15 14 12 13 13 14 14 14 13 8 10 7 8 9 11 11 11 11 9 10 7 7 8
4 5 7 10 6 8 10 12 13 8 6 11 10 12 7 14 7 11 9 9 12 13 14 15 14 14 14 14 13 14 10 7 7 9 11 10 11 12 9 10 10 12 12 12
4 5 6 13 4 8 12 7 8 8 9 15 15 13 9 8 8 8 8 12 13 13 12 13 14 15 14 14 14 10 8 7 8 10 10 11 13 12 11 12 11 12 11 10
5 6 8 8 8 13 7 4 4 6 7 10 13 9 7 6 5 15 20 19 11 11 12 14 15 15 14 12 11 7 7 7 9 10 10 13 10 10 13 11 9 9 7 7
6 6 7 4 9 13 7 9 1 5 11 13 7 9 7 5 1 13 3 4 9 11 12 13 15 15 12 11 9 7 7 9 9 9 12 9 10 12 10 9 9 7 6 5
6 5 7 9 13 13 11 6 5 7 8 10 7 7 9 9 7 2 4 7 10 11 13 14 14 13 12 9 7 7 9 9 9 10 9 9 11 9 9 8 7 7 6 6
6 5 11 9 9 6 10 7 5 7 5 6 6 5 5 7 7 5 6 9 10 12 14 14 13 11 10 7 6 7 8 8 8 9 7 10 10 8 8 7 7 7 7 7
7 7 8 7 6 11 12 5 6 5 0 3 3 5 5 5 3 4 8 8 11 13 14 14 12 10 8 6 7 8 8 7 11 6 7 9 7 7 6 7 7 6 5 5
7 5 7 7 6 4 2 4 2 3 5 1 2 3 3 2 5 6 7 10 11 13 12 13 12 10 7 6 8 8 7 8 8 7 7 7 5 6 6 5 7 6 6 5
7 7 6 7 6 7 3 6 2 3 2 2 4 2 0 5 5 8 10 9 10 12 11 12 11 8 6 5 7 6 7 10 5 5 4 6 5 5 6 6 5 4 5 6
6 4 4 7 12 11 8 4 3 5 2 3 3 3 3 3 7 9 10 10 10 11 10 11 9 7 5 5 6 7 7 8 5 5 4 5 3 4 4 6 8 6 8 6
7 7 8 7 8 6 6 2 3 2 4 5 5 3 3 6 8 10 10 10 10 11 10 10 8 4 5 5 6 6 7 6 5 7 5 7 3 2 3 3 4 6 5 3
Wind_Direction
208 241 247 20 3 348 331 312 302 90 101 284 301 300 283 30 299 264 246 210 184 192 145 151 193 176 161 143 162 201 190 193 231 230 244 240 246 291 240 274 307 296 308 322
205 238 14 7 336 303 279 296 30 304 91 296 288 295 67 37 15 342 302 166 177 164 155 162 183 187 182 173 180 198 234 215 217 240 231 339 334 318 311 309 302 266 287 294
251 35 39 272 223 263 274 351 352 323 318 264 278 270 138 130 115 111 177 80 135 176 172 169 176 191 194 186 194 210 231 232 221 277 270 219 235 230 243 345 279 5 328 307
265 75 259 238 233 320 14 7 322 311 305 321 320 278 119 100 112 117 158 177 162 147 168 137 326 184 193 240 155 194 206 203 207 214 266 274 302 285 348 279 330 324 288 305
177 174 209 241 47 360 6 327 301 292 272 296 105 306 86 222 142 118 131 126 183 199 134 97 158 151 185 111 187 155 164 178 144 196 272 277 261 328 326 332 331 305 272 328
97 28 315 68 84 302 288 265 264 260 246 186 5 330 78 45 11 36 151 227 235 263 136 133 125 142 186 128 45 138 161 171 189 224 226 239 279 300 321 328 308 313 334 317
170 186 98 273 270 81 325 335 325 261 245 29 61 276 73 50 30 341 339 328 296 251 251 54 175 154 97 101 117 106 149 202 197 225 226 242 283 310 288 321 326 336 318 323
215 164 178 131 328 339 24 312 24 318 343 321 51 7 115 85 40 322 313 306 293 290 318 36 53 67 339 50 81 212 212 265 205 241 255 301 304 309 308 353 332 314 313 328
282 125 104 22 282 300 228 26 360 300 266 283 149 42 80 201 11 350 322 286 288 294 357 311 33 104 342 16 216 281 299 299 268 277 284 286 355 335 322 328 317 318 320 331
2 281 147 125 228 65 312 13 305 322 319 332 342 350 4 13 11 351 332 329 342 8 301 17 353 91 355 308 292 235 310 301 311 293 270 338 18 347 334 321 324 323 311 326
318 261 15 183 221 157 215 149 271 307 347 319 316 328 45 6 352 351 339 339 325 352 15 43 48 47 25 321 326 335 311 307 275 262 46 59 319 335 321 323 330 315 332 304
116 306 332 320 254 347 300 342 342 342 345 320 279 342 28 10 10 24 343 17 33 0 1 341 2 15 322 338 342 347 347 302 308 55 11 328 311 325 348 333 319 354 332 322
138 230 266 230 118 19 321 283 341 217 269 302 302 306 27 32 24 26 17 7 331 351 29 345 5 348 33 12 355 324 327 330 40 14 342 309 350 341 334 333 6 344 328 335
297 270 279 299 167 193 224 191 223 317 277 329 323 337 326 32 19 5 357 342 345 7 29 20 2 359 354 357 3 350 352 40 340 337 323 352 348 342 340 22 5 340 356 336
254 255 246 301 332 299 315 302 322 317 326 316 327 318 0 21 351 13 18 357 3 22 16 5 6 2 348 1 348 356 5 354 3 344 344 3 351 349 19 360 357 340 317 312
186 276 292 293 216 282 295 299 284 266 314 311 318 307 101 314 7 27 0 1 17 14 11 6 356 358 354 352 348 348 17 27 3 359 359 359 0 18 1 344 332 346 359 3
242 278 246 277 114 305 278 313 1 334 331 345 319 338 331 360 19 355 23 29 22 15 5 359 353 353 349 351 347 2 22 14 7 4 5 10 19 1 352 10 6 1 0 3
250 241 278 270 275 276 67 234 339 337 286 304 318 344 5 12 10 44 31 18 16 15 356 354 352 339 1 352 351 359 13 9 9 14 11 26 1 10 16 7 17 9 351 338
286 261 281 268 273 303 351 40 210 319 321 312 355 6 352 348 109 57 334 12 19 5 354 354 343 351 12 353 353 10 358 22 16 14 30 8 13 26 356 11 11 12 355 7
214 253 273 285 292 289 44 143 16 324 303 31 9 23 11 328 63 210 36 20 12 359 357 357 349 351 8 359 2 4 19 21 18 31 13 12 30 15 5 18 9 10 2 20
243 261 260 271 292 289 50 42 351 300 33 21 11 26 15 32 42 48 19 12 356 351 1 351 356 359 10 2 347 24 19 24 21 32 13 36 33 339 26 24 22 16 27 47
270 303 287 261 302 292 24 340 352 39 245 313 38 24 73 81 62 21 7 348 357 353 359 353 355 358 25 4 358 40 25 3 49 22 11 42 33 346 17 15 15 27 28 53
260 301 333 351 332 1 313 333 40 288 281 34 20 65 82 34 25 5 341 357 356 357 355 356 354 8 43 35 30 21 23 14 38 10 13 56 30 17 1 21 25 14 6 19
194 163 248 270 255 310 21 301 231 215 285 94 114 137 61 29 355 349 350 0 355 356 354 355 358 8 51 34 38 27 15 47 28 350 6 44 25 3 8 8 38 38 59 16
39 130 213 272 262 258 247 216 342 155 173 165 150 122 75 7 358 359 356 0 351 347 354 355 5 9 39 34 34 27 19 42 19 321 339 44 95 338 68 35 14 31 55 17
262 238 268 288 0 327 320 119 142 197 199 193 160 151 62 3 2 1 358 351 357 334 351 353 352 19 19 22 36 26 35 31 1 296 38 30 357 45 332 96 110 61 59 39